Tracking 30298 objects as of 27-Apr-2025
HD Live streaming from Space Station
objects crossing your sky now

STARLINK-5273

Track STARLINK-5273 now!
10-day predictions
STARLINK-5273 is classified as:


NORAD ID: 54162
Int'l Code: 2022-141F
Perigee: 545.9 km
Apogee: 547.9 km
Inclination: 53.2 °
Period: 95.4 minutes
Semi major axis: 6917 km
RCS: Unknown
Launch date: October 28, 2022
Source: United States (US)
Launch site: AIR FORCE WESTERN TEST RANGE (AFWTR)
Your satellite tracking list
Your tracking list is empty




NASA's NSSDC Master Catalog

Two Line Element Set (TLE):
1 54162U 22141F   25117.63592937  .00002274  00000-0  16093-3 0  9995
2 54162  53.2182 352.9558 0001404  82.4936 277.6216 15.08834846138009
Source of the keplerian elements: AFSPC